When you browse on this site, cookies collect data to enhance your experience and personalize the content and advertising you see.
Visit our Privacy Policy to learn more. By continuing to use the site, you agree to this use of cookies and data.
  • în România
  • Lista ţărilor
  • Pe 7 zile
  • Temperatura apei
  • Meteo pe hartă
  • Widget-uri
  • user-avatar
    Intrare

    Meteo pe oră la Antwerp

    Astăzi, 26 Ianuarie, Duminică

    Timp Temperatura Precipitaţii Vânt Presiune Umiditate
    00:00 +2°C° 0 mm 2 m/s 762 mmHg 89%
    01:00 +1°C° 0 mm 3 m/s 762 mmHg 89%
    02:00 +1°C° 0 mm 3 m/s 762 mmHg 89%
    03:00 +1°C° 0 mm 3 m/s 761 mmHg 90%
    04:00 +1°C° 0 mm 3 m/s 761 mmHg 90%
    05:00 +1°C° 0 mm 3 m/s 761 mmHg 91%
    06:00 +1°C° 0 mm 3 m/s 761 mmHg 93%
    07:00 +1°C° 0 mm 3 m/s 761 mmHg 92%
    08:00 +2°C° 0 mm 3 m/s 761 mmHg 91%
    09:00 +1°C° 0 mm 4 m/s 761 mmHg 90%
    10:00 +4°C° 0 mm 4 m/s 760 mmHg 86%
    11:00 +5°C° 0 mm 4 m/s 760 mmHg 82%
    12:00 +6°C° 0 mm 5 m/s 760 mmHg 78%
    13:00 +7°C° 0 mm 5 m/s 760 mmHg 79%
    14:00 +7°C° 0 mm 4 m/s 759 mmHg 80%
    15:00 +7°C° 0 mm 4 m/s 759 mmHg 81%
    16:00 +6°C° 0 mm 4 m/s 759 mmHg 84%
    17:00 +6°C° 0 mm 4 m/s 759 mmHg 87%
    18:00 +5°C° 0 mm 4 m/s 758 mmHg 90%
    19:00 +5°C° 0 mm 5 m/s 758 mmHg 89%
    20:00 +6°C° 0 mm 5 m/s 758 mmHg 87%
    21:00 +5°C° 0 mm 6 m/s 758 mmHg 85%
    22:00 +5°C° 0.1 mm 6 m/s 757 mmHg 85%
    23:00 +7°C° 0.1 mm 6 m/s 757 mmHg 84%

    Mâine, 27 Ianuarie, Luni

    Timp Temperatura Precipitaţii Vânt Presiune Umiditate
    00:00 +6°C° 0.1 mm 7 m/s 757 mmHg 84%
    01:00 +6°C° 0.4 mm 7 m/s 756 mmHg 85%
    02:00 +6°C° 0.4 mm 7 m/s 756 mmHg 86%
    03:00 +6°C° 0.4 mm 7 m/s 755 mmHg 88%
    04:00 +6°C° 0.1 mm 7 m/s 755 mmHg 87%
    05:00 +7°C° 0.1 mm 6 m/s 754 mmHg 87%
    06:00 +7°C° 0.1 mm 6 m/s 754 mmHg 87%
    07:00 +7°C° 0 mm 6 m/s 754 mmHg 87%
    08:00 +7°C° 0 mm 5 m/s 754 mmHg 88%
    09:00 +7°C° 0 mm 5 m/s 754 mmHg 88%
    10:00 +8°C° 0.1 mm 5 m/s 753 mmHg 84%
    11:00 +8°C° 0.1 mm 5 m/s 753 mmHg 81%
    12:00 +9°C° 0.1 mm 6 m/s 752 mmHg 77%
    13:00 +9°C° 0.1 mm 5 m/s 752 mmHg 76%
    14:00 +9°C° 0.1 mm 5 m/s 751 mmHg 76%
    15:00 +8°C° 0.1 mm 4 m/s 751 mmHg 76%
    16:00 +8°C° 0.2 mm 5 m/s 750 mmHg 78%
    17:00 +8°C° 0.2 mm 5 m/s 750 mmHg 80%
    18:00 +7°C° 0.2 mm 5 m/s 749 mmHg 82%
    19:00 +7°C° 1.1 mm 5 m/s 748 mmHg 85%
    20:00 +6°C° 1.1 mm 4 m/s 748 mmHg 88%
    21:00 +7°C° 1.1 mm 3 m/s 747 mmHg 91%
    22:00 +7°C° 1.2 mm 3 m/s 746 mmHg 91%
    23:00 +7°C° 1.2 mm 3 m/s 746 mmHg 90%

    Poimâine, 28 Ianuarie, Marţi

    Timp Temperatura Precipitaţii Vânt Presiune Umiditate
    00:00 +5°C° 1.2 mm 3 m/s 745 mmHg 89%
    01:00 +5°C° 0.1 mm 4 m/s 744 mmHg 88%
    02:00 +5°C° 0.1 mm 4 m/s 744 mmHg 88%
    03:00 +5°C° 0.1 mm 5 m/s 743 mmHg 87%
    04:00 +3°C° 0.6 mm 5 m/s 743 mmHg 87%
    05:00 +3°C° 0.6 mm 6 m/s 742 mmHg 88%
    06:00 +3°C° 0.6 mm 7 m/s 742 mmHg 88%
    07:00 +2°C° 0.6 mm 8 m/s 743 mmHg 84%
    08:00 +2°C° 0.6 mm 8 m/s 743 mmHg 80%
    09:00 +2°C° 0.6 mm 8 m/s 744 mmHg 76%
    10:00 +2°C° 0 mm 9 m/s 745 mmHg 70%
    11:00 +2°C° 0 mm 9 m/s 745 mmHg 63%
    12:00 +2°C° 0 mm 10 m/s 746 mmHg 56%
    13:00 +3°C° 0 mm 9 m/s 747 mmHg 57%
    14:00 +4°C° 0 mm 8 m/s 747 mmHg 57%
    15:00 +4°C° 0 mm 7 m/s 747 mmHg 58%
    16:00 +3°C° 0.1 mm 7 m/s 747 mmHg 64%
    17:00 +3°C° 0.1 mm 6 m/s 747 mmHg 70%
    18:00 +2°C° 0.1 mm 5 m/s 747 mmHg 77%
    19:00 +2°C° 0.2 mm 5 m/s 747 mmHg 77%
    20:00 +2°C° 0.2 mm 6 m/s 748 mmHg 77%
    21:00 +2°C° 0.2 mm 6 m/s 748 mmHg 77%
    22:00 +2°C° 0.3 mm 6 m/s 748 mmHg 78%
    23:00 +2°C° 0.3 mm 6 m/s 748 mmHg 79%

    29 Ianuarie, Miercuri

    Timp Temperatura Precipitaţii Vânt Presiune Umiditate
    00:00 +2°C° 0.3 mm 7 m/s 749 mmHg 80%
    01:00 +2°C° 0.1 mm 7 m/s 749 mmHg 78%
    02:00 +2°C° 0.1 mm 7 m/s 750 mmHg 77%
    03:00 +3°C° 0.1 mm 7 m/s 751 mmHg 75%
    04:00 +3°C° 0 mm 7 m/s 752 mmHg 76%
    05:00 +2°C° 0 mm 7 m/s 752 mmHg 77%
    06:00 +2°C° 0 mm 7 m/s 753 mmHg 77%
    07:00 +2°C° 0 mm 6 m/s 754 mmHg 76%
    08:00 +2°C° 0 mm 6 m/s 755 mmHg 76%
    09:00 +2°C° 0 mm 6 m/s 756 mmHg 75%
    10:00 +3°C° 0 mm 6 m/s 756 mmHg 70%
    11:00 +3°C° 0 mm 7 m/s 757 mmHg 65%
    12:00 +4°C° 0 mm 7 m/s 757 mmHg 60%
    13:00 +4°C° 0.1 mm 7 m/s 757 mmHg 62%
    14:00 +4°C° 0.1 mm 6 m/s 758 mmHg 63%
    15:00 +3°C° 0.1 mm 6 m/s 758 mmHg 65%
    16:00 +3°C° 0 mm 5 m/s 758 mmHg 69%
    17:00 +2°C° 0 mm 5 m/s 759 mmHg 73%
    18:00 +3°C° 0 mm 4 m/s 759 mmHg 77%
    19:00 +1°C° 0 mm 4 m/s 760 mmHg 79%
    20:00 +1°C° 0 mm 4 m/s 760 mmHg 80%
    21:00 +2°C° 0 mm 3 m/s 761 mmHg 82%
    22:00 +1°C° 0 mm 4 m/s 761 mmHg 83%
    23:00 +1°C° 0 mm 4 m/s 761 mmHg 84%

    30 Ianuarie, Joi

    Timp Temperatura Precipitaţii Vânt Presiune Umiditate
    00:00 0°C° 0 mm 4 m/s 761 mmHg 86%
    01:00 0°C° 0 mm 4 m/s 761 mmHg 86%
    02:00 0°C° 0 mm 4 m/s 761 mmHg 87%
    03:00 0°C° 0 mm 4 m/s 761 mmHg 88%
    04:00 0°C° 0 mm 4 m/s 761 mmHg 89%
    05:00 0°C° 0 mm 4 m/s 761 mmHg 89%
    06:00 0°C° 0 mm 4 m/s 761 mmHg 90%
    07:00 0°C° 0 mm 4 m/s 761 mmHg 89%
    08:00 +1°C° 0 mm 4 m/s 761 mmHg 88%
    09:00 +1°C° 0 mm 5 m/s 761 mmHg 87%
    10:00 +2°C° 0 mm 5 m/s 760 mmHg 82%
    11:00 +4°C° 0 mm 4 m/s 760 mmHg 78%
    12:00 +5°C° 0 mm 4 m/s 760 mmHg 74%
    13:00 +5°C° 0 mm 4 m/s 759 mmHg 73%
    14:00 +7°C° 0 mm 3 m/s 759 mmHg 73%
    15:00 +7°C° 0 mm 3 m/s 758 mmHg 73%
    16:00 +5°C° 0 mm 3 m/s 758 mmHg 75%
    17:00 +4°C° 0 mm 3 m/s 758 mmHg 78%
    18:00 +3°C° 0 mm 3 m/s 758 mmHg 81%
    19:00 +3°C° 0 mm 3 m/s 758 mmHg 82%
    20:00 +3°C° 0 mm 3 m/s 758 mmHg 83%
    21:00 +2°C° 0 mm 3 m/s 758 mmHg 84%
    22:00 +2°C° 0 mm 3 m/s 758 mmHg 85%
    23:00 +2°C° 0 mm 3 m/s 757 mmHg 86%

    31 Ianuarie, Vineri

    Timp Temperatura Precipitaţii Vânt Presiune Umiditate
    00:00 +2°C° 0 mm 3 m/s 757 mmHg 87%
    01:00 +2°C° 0 mm 3 m/s 757 mmHg 89%
    02:00 +2°C° 0 mm 3 m/s 757 mmHg 90%
    03:00 +3°C° 0 mm 2 m/s 757 mmHg 92%
    04:00 +3°C° 0 mm 3 m/s 757 mmHg 92%
    05:00 +3°C° 0 mm 3 m/s 757 mmHg 93%
    06:00 +4°C° 0 mm 3 m/s 757 mmHg 93%
    07:00 +5°C° 0 mm 3 m/s 757 mmHg 94%
    08:00 +5°C° 0 mm 3 m/s 757 mmHg 95%
    09:00 +7°C° 0 mm 3 m/s 758 mmHg 95%
    10:00 +7°C° 0 mm 3 m/s 758 mmHg 95%
    11:00 +7°C° 0 mm 4 m/s 758 mmHg 95%
    12:00 +8°C° 0 mm 4 m/s 758 mmHg 95%
    13:00 +8°C° 0 mm 4 m/s 758 mmHg 94%
    14:00 +10°C° 0 mm 4 m/s 758 mmHg 92%
    15:00 +10°C° 0 mm 4 m/s 758 mmHg 91%
    16:00 +10°C° 0 mm 4 m/s 758 mmHg 90%
    17:00 +8°C° 0 mm 4 m/s 758 mmHg 90%
    18:00 +8°C° 0 mm 4 m/s 758 mmHg 89%
    19:00 +8°C° 0 mm 4 m/s 758 mmHg 88%
    20:00 +8°C° 0 mm 5 m/s 758 mmHg 87%
    21:00 +8°C° 0 mm 5 m/s 758 mmHg 86%
    22:00 +9°C° 0 mm 5 m/s 758 mmHg 87%
    23:00 +9°C° 0 mm 6 m/s 758 mmHg 87%
    Arată mai mult